Year,Month,Day,Hour,Minute,Value (Times are PST for temperature in C)
2018,04,27,00,00,13.40
2018,04,27,00,01,13.40
2018,04,27,00,02,13.40
2018,04,27,00,03,13.40
2018,04,27,00,04,13.40
2018,04,27,00,05,13.50
2018,04,27,00,06,13.50
2018,04,27,00,07,13.50
2018,04,27,00,08,13.60
2018,04,27,00,09,13.60
2018,04,27,00,10,13.70
2018,04,27,00,11,13.70
2018,04,27,00,12,13.80
2018,04,27,00,13,13.80
2018,04,27,00,14,13.80
2018,04,27,00,15,13.90
2018,04,27,00,16,13.90
2018,04,27,00,17,13.90
2018,04,27,00,18,13.90
2018,04,27,00,19,13.90
2018,04,27,00,20,13.90
2018,04,27,00,21,14.00
2018,04,27,00,22,14.10
2018,04,27,00,23,14.10
2018,04,27,00,24,14.20
2018,04,27,00,25,14.30
2018,04,27,00,26,14.40
2018,04,27,00,27,14.40
2018,04,27,00,28,14.50
2018,04,27,00,29,14.50
2018,04,27,00,30,14.50
2018,04,27,00,31,14.50
2018,04,27,00,32,14.50
2018,04,27,00,33,14.40
2018,04,27,00,34,14.40
2018,04,27,00,35,14.30
2018,04,27,00,36,14.30
2018,04,27,00,37,14.30
2018,04,27,00,38,14.20
2018,04,27,00,39,14.20
2018,04,27,00,40,14.10
2018,04,27,00,41,14.00
2018,04,27,00,42,13.90
2018,04,27,00,43,13.80
2018,04,27,00,44,13.70
2018,04,27,00,45,13.60
2018,04,27,00,46,13.50
2018,04,27,00,47,13.40
2018,04,27,00,48,13.30
2018,04,27,00,49,13.20
2018,04,27,00,50,13.10
2018,04,27,00,51,13.10
2018,04,27,00,52,13.00
2018,04,27,00,53,13.00
2018,04,27,00,54,13.00
2018,04,27,00,55,12.90
2018,04,27,00,56,13.00
2018,04,27,00,57,13.00
2018,04,27,00,58,13.10
2018,04,27,00,59,13.10
2018,04,27,01,00,13.10
2018,04,27,01,01,13.20
2018,04,27,01,02,13.20
2018,04,27,01,03,13.20
2018,04,27,01,04,13.20
2018,04,27,01,05,13.20
2018,04,27,01,06,13.20
2018,04,27,01,07,13.20
2018,04,27,01,08,13.20
2018,04,27,01,09,13.20
2018,04,27,01,10,13.20
2018,04,27,01,11,13.20
2018,04,27,01,12,13.10
2018,04,27,01,13,13.00
2018,04,27,01,14,12.90
2018,04,27,01,15,12.90
2018,04,27,01,16,12.90
2018,04,27,01,17,13.00
2018,04,27,01,18,13.00
2018,04,27,01,19,13.10
2018,04,27,01,20,13.20
2018,04,27,01,21,13.20
2018,04,27,01,22,13.30
2018,04,27,01,23,13.40
2018,04,27,01,24,13.50
2018,04,27,01,25,13.60
2018,04,27,01,26,13.60
2018,04,27,01,27,13.70
2018,04,27,01,28,13.80
2018,04,27,01,29,13.80
2018,04,27,01,30,13.90
2018,04,27,01,31,14.00
2018,04,27,01,32,14.10
2018,04,27,01,33,14.10
2018,04,27,01,34,14.20
2018,04,27,01,35,14.30
2018,04,27,01,36,14.40
2018,04,27,01,37,14.40
2018,04,27,01,38,14.50
2018,04,27,01,39,14.50
2018,04,27,01,40,14.50
2018,04,27,01,41,14.40
2018,04,27,01,42,14.30
2018,04,27,01,43,14.20
2018,04,27,01,44,14.10
2018,04,27,01,45,14.00
2018,04,27,01,46,13.90
2018,04,27,01,47,13.80
2018,04,27,01,48,13.70
2018,04,27,01,49,13.50
2018,04,27,01,50,13.40
2018,04,27,01,51,13.20
2018,04,27,01,52,13.10
2018,04,27,01,53,13.00
2018,04,27,01,54,12.80
2018,04,27,01,55,12.70
2018,04,27,01,56,12.50
2018,04,27,01,57,12.40
2018,04,27,01,58,12.30
2018,04,27,01,59,12.20
2018,04,27,02,00,12.10
2018,04,27,02,01,12.10
2018,04,27,02,02,12.10
2018,04,27,02,03,12.10
2018,04,27,02,04,12.10
2018,04,27,02,05,12.10
2018,04,27,02,06,12.00
2018,04,27,02,07,12.00
2018,04,27,02,08,12.00
2018,04,27,02,09,11.90
2018,04,27,02,10,11.90
2018,04,27,02,11,11.90
2018,04,27,02,12,11.90
2018,04,27,02,13,11.90
2018,04,27,02,14,11.90
2018,04,27,02,15,11.90
2018,04,27,02,16,12.00
2018,04,27,02,17,12.00
2018,04,27,02,18,12.00
2018,04,27,02,19,12.00
2018,04,27,02,20,12.00
2018,04,27,02,21,12.00
2018,04,27,02,22,12.00
2018,04,27,02,23,12.00
2018,04,27,02,24,12.10
2018,04,27,02,25,12.10
2018,04,27,02,26,12.10
2018,04,27,02,27,12.10
2018,04,27,02,28,12.10
2018,04,27,02,29,12.20
2018,04,27,02,30,12.20
2018,04,27,02,31,12.20
2018,04,27,02,32,12.20
2018,04,27,02,33,12.20
2018,04,27,02,34,12.20
2018,04,27,02,35,12.20
2018,04,27,02,36,12.20
2018,04,27,02,37,12.20
2018,04,27,02,38,12.20
2018,04,27,02,39,12.20
2018,04,27,02,40,12.20
2018,04,27,02,41,12.30
2018,04,27,02,42,12.30
2018,04,27,02,43,12.30
2018,04,27,02,44,12.30
2018,04,27,02,45,12.30
2018,04,27,02,46,12.30
2018,04,27,02,47,12.30
2018,04,27,02,48,12.30
2018,04,27,02,49,12.20
2018,04,27,02,50,12.20
2018,04,27,02,51,12.20
2018,04,27,02,52,12.20
2018,04,27,02,53,12.10
2018,04,27,02,54,12.10
2018,04,27,02,55,12.00
2018,04,27,02,56,12.00
2018,04,27,02,57,12.00
2018,04,27,02,58,11.90
2018,04,27,02,59,11.90
2018,04,27,03,00,11.90
2018,04,27,03,01,11.90
2018,04,27,03,02,11.90
2018,04,27,03,03,11.90
2018,04,27,03,04,11.90
2018,04,27,03,05,11.90
2018,04,27,03,06,12.00
2018,04,27,03,07,12.00
2018,04,27,03,08,12.00
2018,04,27,03,09,12.00
2018,04,27,03,10,12.00
2018,04,27,03,11,12.00
2018,04,27,03,12,12.00
2018,04,27,03,13,11.90
2018,04,27,03,14,11.90
2018,04,27,03,15,11.90
2018,04,27,03,16,11.90
2018,04,27,03,17,11.90
2018,04,27,03,18,11.90
2018,04,27,03,19,11.90
2018,04,27,03,20,11.90
2018,04,27,03,21,12.00
2018,04,27,03,22,12.00
2018,04,27,03,23,12.10
2018,04,27,03,24,12.10
2018,04,27,03,25,12.20
2018,04,27,03,26,12.30
2018,04,27,03,27,12.30
2018,04,27,03,28,12.30
2018,04,27,03,29,12.30
2018,04,27,03,30,12.40
2018,04,27,03,31,12.40
2018,04,27,03,32,12.40
2018,04,27,03,33,12.30
2018,04,27,03,34,12.30
2018,04,27,03,35,12.20
2018,04,27,03,36,12.20
2018,04,27,03,37,12.10
2018,04,27,03,38,12.10
2018,04,27,03,39,12.00
2018,04,27,03,40,12.00
2018,04,27,03,41,11.90
2018,04,27,03,42,11.90
2018,04,27,03,43,11.90
2018,04,27,03,44,11.80
2018,04,27,03,45,11.80
2018,04,27,03,46,11.80
2018,04,27,03,47,11.80
2018,04,27,03,48,11.80
2018,04,27,03,49,11.80
2018,04,27,03,50,11.80
2018,04,27,03,51,11.70
2018,04,27,03,52,11.70
2018,04,27,03,53,11.70
2018,04,27,03,54,11.70
2018,04,27,03,55,11.70
2018,04,27,03,56,11.70
2018,04,27,03,57,11.70
2018,04,27,03,58,11.70
2018,04,27,03,59,11.70
2018,04,27,04,00,11.70
2018,04,27,04,01,11.70
2018,04,27,04,02,11.80
2018,04,27,04,03,11.80
2018,04,27,04,04,11.90
2018,04,27,04,05,11.90
2018,04,27,04,06,11.90
2018,04,27,04,07,11.90
2018,04,27,04,08,11.90
2018,04,27,04,09,11.90
2018,04,27,04,10,11.80
2018,04,27,04,11,11.80
2018,04,27,04,12,11.70
2018,04,27,04,13,11.70
2018,04,27,04,14,11.60
2018,04,27,04,15,11.60
2018,04,27,04,16,11.50
2018,04,27,04,17,11.50
2018,04,27,04,18,11.40
2018,04,27,04,19,11.40
2018,04,27,04,20,11.30
2018,04,27,04,21,11.30
2018,04,27,04,22,11.30
2018,04,27,04,23,11.30
2018,04,27,04,24,11.30
2018,04,27,04,25,11.30
2018,04,27,04,26,11.30
2018,04,27,04,27,11.30
2018,04,27,04,28,11.30
2018,04,27,04,29,11.30
2018,04,27,04,30,11.30
2018,04,27,04,31,11.30
2018,04,27,04,32,11.20
2018,04,27,04,33,11.20
2018,04,27,04,34,11.20
2018,04,27,04,35,11.20
2018,04,27,04,36,11.20
2018,04,27,04,37,11.20
2018,04,27,04,38,11.10
2018,04,27,04,39,11.10
2018,04,27,04,40,11.10
2018,04,27,04,41,11.10
2018,04,27,04,42,11.10
2018,04,27,04,43,11.10
2018,04,27,04,44,11.00
2018,04,27,04,45,11.00
2018,04,27,04,46,11.00
2018,04,27,04,47,11.00
2018,04,27,04,48,11.00
2018,04,27,04,49,11.10
2018,04,27,04,50,11.10
2018,04,27,04,51,11.10
2018,04,27,04,52,11.00
2018,04,27,04,53,11.00
2018,04,27,04,54,11.00
2018,04,27,04,55,11.00
2018,04,27,04,56,10.90
2018,04,27,04,57,10.90
2018,04,27,04,58,10.90
2018,04,27,04,59,10.80
2018,04,27,05,00,10.80
2018,04,27,05,01,10.80
2018,04,27,05,02,10.80
2018,04,27,05,03,10.80
2018,04,27,05,04,10.80
2018,04,27,05,05,10.80
2018,04,27,05,06,10.80
2018,04,27,05,07,10.70
2018,04,27,05,08,10.70
2018,04,27,05,09,10.70
2018,04,27,05,10,10.60
2018,04,27,05,11,10.60
2018,04,27,05,12,10.60
2018,04,27,05,13,10.60
2018,04,27,05,14,10.60
2018,04,27,05,15,10.60
2018,04,27,05,16,10.70
2018,04,27,05,17,10.70
2018,04,27,05,18,10.70
2018,04,27,05,19,10.70
2018,04,27,05,20,10.70
2018,04,27,05,21,10.70
2018,04,27,05,22,10.70
2018,04,27,05,23,10.70
2018,04,27,05,24,10.70
2018,04,27,05,25,10.70
2018,04,27,05,26,10.70
2018,04,27,05,27,10.70
2018,04,27,05,28,10.70
2018,04,27,05,29,10.60
2018,04,27,05,30,10.60
2018,04,27,05,31,10.60
2018,04,27,05,32,10.60
2018,04,27,05,33,10.60
2018,04,27,05,34,10.60
2018,04,27,05,35,10.60
2018,04,27,05,36,10.60
2018,04,27,05,37,10.60
2018,04,27,05,38,10.60
2018,04,27,05,39,10.60
2018,04,27,05,40,10.60
2018,04,27,05,41,10.60
2018,04,27,05,42,10.60
2018,04,27,05,43,10.60
2018,04,27,05,44,10.50
2018,04,27,05,45,10.40
2018,04,27,05,46,10.40
2018,04,27,05,47,10.40
2018,04,27,05,48,10.30
2018,04,27,05,49,10.30
2018,04,27,05,50,10.20
2018,04,27,05,51,10.20
2018,04,27,05,52,10.20
2018,04,27,05,53,10.10
2018,04,27,05,54,10.10
2018,04,27,05,55,10.10
2018,04,27,05,56,10.10
2018,04,27,05,57,10.10
2018,04,27,05,58,10.00
2018,04,27,05,59,10.00
2018,04,27,06,00,10.00
2018,04,27,06,01,10.00
2018,04,27,06,02,10.00
2018,04,27,06,03,10.00
2018,04,27,06,04,10.00
2018,04,27,06,05,10.00
2018,04,27,06,06,10.00
2018,04,27,06,07,10.00
2018,04,27,06,08,10.00
2018,04,27,06,09,9.90
2018,04,27,06,10,9.90
2018,04,27,06,11,9.90
2018,04,27,06,12,9.90
2018,04,27,06,13,9.90
2018,04,27,06,14,9.90
2018,04,27,06,15,9.90
2018,04,27,06,16,9.90
2018,04,27,06,17,9.90
2018,04,27,06,18,10.00
2018,04,27,06,19,10.00
2018,04,27,06,20,10.00
2018,04,27,06,21,10.10
2018,04,27,06,22,10.10
2018,04,27,06,23,10.20
2018,04,27,06,24,10.20
2018,04,27,06,25,10.30
2018,04,27,06,26,10.30
2018,04,27,06,27,10.30
2018,04,27,06,28,10.30
2018,04,27,06,29,10.30
2018,04,27,06,30,10.20
2018,04,27,06,31,10.20
2018,04,27,06,32,10.20
2018,04,27,06,33,10.20
2018,04,27,06,34,10.20
2018,04,27,06,35,10.20
2018,04,27,06,36,10.20
2018,04,27,06,37,10.20
2018,04,27,06,38,10.20
2018,04,27,06,39,10.20
2018,04,27,06,40,10.20
2018,04,27,06,41,10.20
2018,04,27,06,42,10.20
2018,04,27,06,43,10.20
2018,04,27,06,44,10.20
2018,04,27,06,45,10.20
2018,04,27,06,46,10.20
2018,04,27,06,47,10.20
2018,04,27,06,48,10.20
2018,04,27,06,49,10.20
2018,04,27,06,50,10.20
2018,04,27,06,51,10.20
2018,04,27,06,52,10.20
2018,04,27,06,53,10.20
2018,04,27,06,54,10.20
2018,04,27,06,55,10.20
2018,04,27,06,56,10.20
2018,04,27,06,57,10.30
2018,04,27,06,58,10.30
2018,04,27,06,59,10.30
2018,04,27,07,00,10.30
2018,04,27,07,01,10.30
2018,04,27,07,02,10.30
2018,04,27,07,03,10.30
2018,04,27,07,04,10.30
2018,04,27,07,05,10.30
2018,04,27,07,06,10.40
2018,04,27,07,07,10.40
2018,04,27,07,08,10.40
2018,04,27,07,09,10.40
2018,04,27,07,10,10.40
2018,04,27,07,11,10.40
2018,04,27,07,12,10.40
2018,04,27,07,13,10.40
2018,04,27,07,14,10.40
2018,04,27,07,15,10.40
2018,04,27,07,16,10.40
2018,04,27,07,17,10.40
2018,04,27,07,18,10.40
2018,04,27,07,19,10.50
2018,04,27,07,20,10.50
2018,04,27,07,21,10.60
2018,04,27,07,22,10.60
2018,04,27,07,23,10.70
2018,04,27,07,24,10.70
2018,04,27,07,25,10.80
2018,04,27,07,26,10.80
2018,04,27,07,27,10.80
2018,04,27,07,28,10.80
2018,04,27,07,29,10.80
2018,04,27,07,30,10.90
2018,04,27,07,31,10.90
2018,04,27,07,32,10.90
2018,04,27,07,33,10.90
2018,04,27,07,34,10.90
2018,04,27,07,35,10.90
2018,04,27,07,36,10.90
2018,04,27,07,37,10.90
2018,04,27,07,38,10.90
2018,04,27,07,39,10.90
2018,04,27,07,40,11.00
2018,04,27,07,41,11.00
2018,04,27,07,42,11.00
2018,04,27,07,43,11.00
2018,04,27,07,44,11.00
2018,04,27,07,45,11.00
2018,04,27,07,46,11.00
2018,04,27,07,47,11.00
2018,04,27,07,48,11.10
2018,04,27,07,49,11.10
2018,04,27,07,50,11.10
2018,04,27,07,51,11.10
2018,04,27,07,52,11.20
2018,04,27,07,53,11.20
2018,04,27,07,54,11.20
2018,04,27,07,55,11.20
2018,04,27,07,56,11.30
2018,04,27,07,57,11.30
2018,04,27,07,58,11.30
2018,04,27,07,59,11.30
2018,04,27,08,00,11.40
2018,04,27,08,01,11.40
2018,04,27,08,02,11.40
2018,04,27,08,03,11.50
2018,04,27,08,04,11.50
2018,04,27,08,05,11.60
2018,04,27,08,06,11.60
2018,04,27,08,07,11.60
2018,04,27,08,08,11.60
2018,04,27,08,09,11.60
2018,04,27,08,10,11.70
2018,04,27,08,11,11.70
2018,04,27,08,12,11.70
2018,04,27,08,13,11.80
2018,04,27,08,14,11.80
2018,04,27,08,15,11.90
2018,04,27,08,16,11.90
2018,04,27,08,17,11.90
2018,04,27,08,18,12.00
2018,04,27,08,19,12.10
2018,04,27,08,20,12.10
2018,04,27,08,21,12.20
2018,04,27,08,22,12.30
2018,04,27,08,23,12.30
2018,04,27,08,24,12.40
2018,04,27,08,25,12.50
2018,04,27,08,26,12.50
2018,04,27,08,27,12.60
2018,04,27,08,28,12.60
2018,04,27,08,29,12.70
2018,04,27,08,30,12.70
2018,04,27,08,31,12.80
2018,04,27,08,32,12.90
2018,04,27,08,33,12.90
2018,04,27,08,34,13.00
2018,04,27,08,35,13.10
2018,04,27,08,36,13.10
2018,04,27,08,37,13.20
2018,04,27,08,38,13.20
2018,04,27,08,39,13.30
2018,04,27,08,40,13.30
2018,04,27,08,41,13.40
2018,04,27,08,42,13.40
2018,04,27,08,43,13.50
2018,04,27,08,44,13.60
2018,04,27,08,45,13.70
2018,04,27,08,46,13.70
2018,04,27,08,47,13.80
2018,04,27,08,48,13.80
2018,04,27,08,49,13.80
2018,04,27,08,50,13.80
2018,04,27,08,51,13.90
2018,04,27,08,52,13.90
2018,04,27,08,53,13.90
2018,04,27,08,54,14.00
2018,04,27,08,55,14.00
2018,04,27,08,56,14.10
2018,04,27,08,57,14.10
2018,04,27,08,58,14.10
2018,04,27,08,59,14.10
2018,04,27,09,00,14.10
2018,04,27,09,01,14.10
2018,04,27,09,02,14.20
2018,04,27,09,03,14.30
2018,04,27,09,04,14.30
2018,04,27,09,05,14.30
2018,04,27,09,06,14.40
2018,04,27,09,07,14.40
2018,04,27,09,08,14.50
2018,04,27,09,09,14.50
2018,04,27,09,10,14.60
2018,04,27,09,11,14.60
2018,04,27,09,12,14.60
2018,04,27,09,13,14.60
2018,04,27,09,14,14.70
2018,04,27,09,15,14.70
2018,04,27,09,16,14.70
2018,04,27,09,17,14.70
2018,04,27,09,18,14.80
2018,04,27,09,19,14.80
2018,04,27,09,20,14.80
2018,04,27,09,21,14.80
2018,04,27,09,22,14.80
2018,04,27,09,23,14.80
2018,04,27,09,24,14.70
2018,04,27,09,25,14.70
2018,04,27,09,26,14.70
2018,04,27,09,27,14.80
2018,04,27,09,28,14.80
2018,04,27,09,29,14.80
2018,04,27,09,30,14.80
2018,04,27,09,31,14.90
2018,04,27,09,32,15.00
2018,04,27,09,33,15.00
2018,04,27,09,34,15.10
2018,04,27,09,35,15.20
2018,04,27,09,36,15.30
2018,04,27,09,37,15.40
2018,04,27,09,38,15.60
2018,04,27,09,39,15.70
2018,04,27,09,40,15.80
2018,04,27,09,41,15.90
2018,04,27,09,42,16.00
2018,04,27,09,43,16.10
2018,04,27,09,44,16.20
2018,04,27,09,45,16.30
2018,04,27,09,46,16.40
2018,04,27,09,47,16.50
2018,04,27,09,48,16.60
2018,04,27,09,49,16.60
2018,04,27,09,50,16.70
2018,04,27,09,51,16.60
2018,04,27,09,52,16.60
2018,04,27,09,53,16.50
2018,04,27,09,54,16.50
2018,04,27,09,55,16.40
2018,04,27,09,56,16.40
2018,04,27,09,57,16.40
2018,04,27,09,58,16.50
2018,04,27,09,59,16.50
2018,04,27,10,00,16.60
2018,04,27,10,01,16.60
2018,04,27,10,02,16.70
2018,04,27,10,03,16.80
2018,04,27,10,04,16.80
2018,04,27,10,05,16.90
2018,04,27,10,06,16.90
2018,04,27,10,07,16.90
2018,04,27,10,08,17.00
2018,04,27,10,09,17.10
2018,04,27,10,10,17.10
2018,04,27,10,11,17.00
2018,04,27,10,12,17.00
2018,04,27,10,13,17.00
2018,04,27,10,14,17.00
2018,04,27,10,15,17.10
2018,04,27,10,16,17.10
2018,04,27,10,17,17.20
2018,04,27,10,18,17.20
2018,04,27,10,19,17.30
2018,04,27,10,20,17.30
2018,04,27,10,21,17.30
2018,04,27,10,22,17.40
2018,04,27,10,23,17.40
2018,04,27,10,24,17.40
2018,04,27,10,25,17.40
2018,04,27,10,26,17.50
2018,04,27,10,27,17.60
2018,04,27,10,28,17.60
2018,04,27,10,29,17.60
2018,04,27,10,30,17.60
2018,04,27,10,31,17.60
2018,04,27,10,32,17.60
2018,04,27,10,33,17.50
2018,04,27,10,34,17.50
2018,04,27,10,35,17.60
2018,04,27,10,36,17.60
2018,04,27,10,37,17.70
2018,04,27,10,38,17.70
2018,04,27,10,39,17.70
2018,04,27,10,40,17.70
2018,04,27,10,41,17.70
2018,04,27,10,42,17.70
2018,04,27,10,43,17.70
2018,04,27,10,44,17.80
2018,04,27,10,45,17.90
2018,04,27,10,46,18.00
2018,04,27,10,47,18.20
2018,04,27,10,48,18.30
2018,04,27,10,49,18.40
2018,04,27,10,50,18.50
2018,04,27,10,51,18.60
2018,04,27,10,52,18.60
2018,04,27,10,53,18.60
2018,04,27,10,54,18.60
2018,04,27,10,55,18.50
2018,04,27,10,56,18.50
2018,04,27,10,57,18.40
2018,04,27,10,58,18.40
2018,04,27,10,59,18.40
2018,04,27,11,00,18.50
2018,04,27,11,01,18.50
2018,04,27,11,02,18.50
2018,04,27,11,03,18.60
2018,04,27,11,04,18.60
2018,04,27,11,05,18.60
2018,04,27,11,06,18.70
2018,04,27,11,07,18.70
2018,04,27,11,08,18.70
2018,04,27,11,09,18.70
2018,04,27,11,10,18.80
2018,04,27,11,11,18.80
2018,04,27,11,12,18.80
2018,04,27,11,13,18.70
2018,04,27,11,14,18.70
2018,04,27,11,15,18.70
2018,04,27,11,16,18.70
2018,04,27,11,17,18.70
2018,04,27,11,18,18.70
2018,04,27,11,19,18.80
2018,04,27,11,20,18.80
2018,04,27,11,21,18.80
2018,04,27,11,22,18.90
2018,04,27,11,23,18.90
2018,04,27,11,24,19.00
2018,04,27,11,25,19.00
2018,04,27,11,26,19.10
2018,04,27,11,27,19.10
2018,04,27,11,28,19.20
2018,04,27,11,29,19.20
2018,04,27,11,30,19.30
2018,04,27,11,31,19.40
2018,04,27,11,32,19.50
2018,04,27,11,33,19.60
2018,04,27,11,34,19.70
2018,04,27,11,35,19.80
2018,04,27,11,36,19.80
2018,04,27,11,37,19.90
2018,04,27,11,38,20.00
2018,04,27,11,39,20.10
2018,04,27,11,40,20.10
2018,04,27,11,41,20.10
2018,04,27,11,42,20.10
2018,04,27,11,43,20.20
2018,04,27,11,44,20.20
2018,04,27,11,45,20.20
2018,04,27,11,46,20.20
2018,04,27,11,47,20.20
2018,04,27,11,48,20.20
2018,04,27,11,49,20.20
2018,04,27,11,50,20.30
2018,04,27,11,51,20.40
2018,04,27,11,52,20.50
2018,04,27,11,53,20.60
2018,04,27,11,54,20.80
2018,04,27,11,55,20.90
2018,04,27,11,56,21.00
2018,04,27,11,57,21.10
2018,04,27,11,58,21.10
2018,04,27,11,59,21.20
2018,04,27,12,00,21.30
2018,04,27,12,01,21.40
2018,04,27,12,02,21.40
2018,04,27,12,03,21.40
2018,04,27,12,04,21.50
2018,04,27,12,05,21.50
2018,04,27,12,06,21.60
2018,04,27,12,07,21.70
2018,04,27,12,08,21.80
2018,04,27,12,09,21.90
2018,04,27,12,10,21.90
2018,04,27,12,11,21.80
2018,04,27,12,12,21.70
2018,04,27,12,13,21.60
2018,04,27,12,14,21.60
2018,04,27,12,15,21.50
2018,04,27,12,16,21.40
2018,04,27,12,17,21.40
2018,04,27,12,18,21.40
2018,04,27,12,19,21.40
2018,04,27,12,20,21.40
2018,04,27,12,21,21.40
2018,04,27,12,22,21.40
2018,04,27,12,23,21.40
2018,04,27,12,24,21.40
2018,04,27,12,25,21.40
2018,04,27,12,26,21.40
2018,04,27,12,27,21.40
2018,04,27,12,28,21.50
2018,04,27,12,29,21.50
2018,04,27,12,30,21.60
2018,04,27,12,31,21.60
2018,04,27,12,32,21.60
2018,04,27,12,33,21.70
2018,04,27,12,34,21.70
2018,04,27,12,35,21.80
2018,04,27,12,36,22.00
2018,04,27,12,37,22.10
2018,04,27,12,38,22.10
2018,04,27,12,39,22.00
2018,04,27,12,40,22.00
2018,04,27,12,41,21.90
2018,04,27,12,42,21.90
2018,04,27,12,43,21.80
2018,04,27,12,44,21.80
2018,04,27,12,45,21.80
2018,04,27,12,46,21.90
2018,04,27,12,47,21.90
2018,04,27,12,48,22.00
2018,04,27,12,49,22.10
2018,04,27,12,50,22.20
2018,04,27,12,51,22.30
2018,04,27,12,52,22.30
2018,04,27,12,53,22.30
2018,04,27,12,54,22.30
2018,04,27,12,55,22.30
2018,04,27,12,56,22.40
2018,04,27,12,57,22.40
2018,04,27,12,58,22.50
2018,04,27,12,59,22.50
2018,04,27,13,00,22.60
2018,04,27,13,01,22.60
2018,04,27,13,02,22.60
2018,04,27,13,03,22.60
2018,04,27,13,04,22.60
2018,04,27,13,05,22.60
2018,04,27,13,06,22.60
2018,04,27,13,07,22.60
2018,04,27,13,08,22.60
2018,04,27,13,09,22.70
2018,04,27,13,10,22.80
2018,04,27,13,11,22.80
2018,04,27,13,12,22.80
2018,04,27,13,13,22.90
2018,04,27,13,14,22.90
2018,04,27,13,15,22.80
2018,04,27,13,16,22.80
2018,04,27,13,17,22.80
2018,04,27,13,18,22.80
2018,04,27,13,19,22.80
2018,04,27,13,20,22.80
2018,04,27,13,21,22.80
2018,04,27,13,22,22.80
2018,04,27,13,23,22.80
2018,04,27,13,24,22.80
2018,04,27,13,25,22.80
2018,04,27,13,26,22.70
2018,04,27,13,27,22.60
2018,04,27,13,28,22.40
2018,04,27,13,29,22.30
2018,04,27,13,30,22.10
2018,04,27,13,31,21.90
2018,04,27,13,32,21.70
2018,04,27,13,33,21.50
2018,04,27,13,34,21.40
2018,04,27,13,35,21.20
2018,04,27,13,36,21.00
2018,04,27,13,37,20.90
2018,04,27,13,38,20.80
2018,04,27,13,39,20.70
2018,04,27,13,40,20.60
2018,04,27,13,41,20.50
2018,04,27,13,42,20.40
2018,04,27,13,43,20.30
2018,04,27,13,44,20.30
2018,04,27,13,45,20.20
2018,04,27,13,46,20.20
2018,04,27,13,47,20.20
2018,04,27,13,48,20.20
2018,04,27,13,49,20.30
2018,04,27,13,50,20.30
2018,04,27,13,51,20.30
2018,04,27,13,52,20.30
2018,04,27,13,53,20.30
2018,04,27,13,54,20.30
2018,04,27,13,55,20.40
2018,04,27,13,56,20.40
2018,04,27,13,57,20.40
2018,04,27,13,58,20.50
2018,04,27,13,59,20.50
2018,04,27,14,00,20.50
2018,04,27,14,01,20.40
2018,04,27,14,02,20.30
2018,04,27,14,03,20.30
2018,04,27,14,04,20.20
2018,04,27,14,05,20.20
2018,04,27,14,06,20.20
2018,04,27,14,07,20.30
2018,04,27,14,08,20.40
2018,04,27,14,09,20.40
2018,04,27,14,10,20.40
2018,04,27,14,11,20.50
2018,04,27,14,12,20.50
2018,04,27,14,13,20.60
2018,04,27,14,14,20.70
2018,04,27,14,15,20.70
2018,04,27,14,16,20.70
2018,04,27,14,17,20.70
2018,04,27,14,18,20.60
2018,04,27,14,19,20.60
2018,04,27,14,20,20.50
2018,04,27,14,21,20.40
2018,04,27,14,22,20.30
2018,04,27,14,23,20.40
2018,04,27,14,24,20.40
2018,04,27,14,25,20.40
2018,04,27,14,26,20.40
2018,04,27,14,27,20.50
2018,04,27,14,28,20.50
2018,04,27,14,29,20.50
2018,04,27,14,30,20.40
2018,04,27,14,31,20.40
2018,04,27,14,32,20.40
2018,04,27,14,33,20.40
2018,04,27,14,34,20.40
2018,04,27,14,35,20.40
2018,04,27,14,36,20.50
2018,04,27,14,37,20.60
2018,04,27,14,38,20.60
2018,04,27,14,39,20.60
2018,04,27,14,40,20.70
2018,04,27,14,41,20.70
2018,04,27,14,42,20.70
2018,04,27,14,43,20.70
2018,04,27,14,44,20.70
2018,04,27,14,45,20.70
2018,04,27,14,46,20.70
2018,04,27,14,47,20.70
2018,04,27,14,48,20.70
2018,04,27,14,49,20.70
2018,04,27,14,50,20.70
2018,04,27,14,51,20.60
2018,04,27,14,52,20.60
2018,04,27,14,53,20.60
2018,04,27,14,54,20.60
2018,04,27,14,55,20.50
2018,04,27,14,56,20.50
2018,04,27,14,57,20.40
2018,04,27,14,58,20.40
2018,04,27,14,59,20.40
2018,04,27,15,00,20.30
2018,04,27,15,01,20.30
2018,04,27,15,02,20.20
2018,04,27,15,03,20.20
2018,04,27,15,04,20.20
2018,04,27,15,05,20.10
2018,04,27,15,06,20.00
2018,04,27,15,07,20.00
2018,04,27,15,08,19.90
2018,04,27,15,09,19.80
2018,04,27,15,10,19.80
2018,04,27,15,11,19.80
2018,04,27,15,12,19.80
2018,04,27,15,13,19.80
2018,04,27,15,14,19.70
2018,04,27,15,15,19.70
2018,04,27,15,16,19.60
2018,04,27,15,17,19.40
2018,04,27,15,18,19.30
2018,04,27,15,19,19.20
2018,04,27,15,20,19.20
2018,04,27,15,21,19.20
2018,04,27,15,22,19.20
2018,04,27,15,23,19.30
2018,04,27,15,24,19.30
2018,04,27,15,25,19.20
2018,04,27,15,26,19.20
2018,04,27,15,27,19.20
2018,04,27,15,28,19.30
2018,04,27,15,29,19.30
2018,04,27,15,30,19.30
2018,04,27,15,31,19.30
2018,04,27,15,32,19.30
2018,04,27,15,33,19.30
2018,04,27,15,34,19.30
2018,04,27,15,35,19.30
2018,04,27,15,36,19.30
2018,04,27,15,37,19.30
2018,04,27,15,38,19.30
2018,04,27,15,39,19.30
2018,04,27,15,40,19.40
2018,04,27,15,41,19.40
2018,04,27,15,42,19.40
2018,04,27,15,43,19.40
2018,04,27,15,44,19.40
2018,04,27,15,45,19.40
2018,04,27,15,46,19.50
2018,04,27,15,47,19.50
2018,04,27,15,48,19.50
2018,04,27,15,49,19.40
2018,04,27,15,50,19.30
2018,04,27,15,51,19.30
2018,04,27,15,52,19.30
2018,04,27,15,53,19.30
2018,04,27,15,54,19.20
2018,04,27,15,55,19.10
2018,04,27,15,56,19.10
2018,04,27,15,57,19.10
2018,04,27,15,58,19.00
2018,04,27,15,59,19.00
2018,04,27,16,00,18.90
2018,04,27,16,01,18.90
2018,04,27,16,02,18.80
2018,04,27,16,03,18.70
2018,04,27,16,04,18.50
2018,04,27,16,05,18.40
2018,04,27,16,06,18.30
2018,04,27,16,07,18.10
2018,04,27,16,08,18.00
2018,04,27,16,09,17.90
2018,04,27,16,10,17.80
2018,04,27,16,11,17.70
2018,04,27,16,12,17.50
2018,04,27,16,13,17.30
2018,04,27,16,14,17.10
2018,04,27,16,15,17.00
2018,04,27,16,16,16.80
2018,04,27,16,17,16.70
2018,04,27,16,18,16.60
2018,04,27,16,19,16.60
2018,04,27,16,20,16.60
2018,04,27,16,21,16.70
2018,04,27,16,22,16.70
2018,04,27,16,23,16.70
2018,04,27,16,24,16.70
2018,04,27,16,25,16.70
2018,04,27,16,26,16.60
2018,04,27,16,27,16.60
2018,04,27,16,28,16.60
2018,04,27,16,29,16.60
2018,04,27,16,30,16.50
2018,04,27,16,31,16.50
2018,04,27,16,32,16.40
2018,04,27,16,33,16.40
2018,04,27,16,34,16.30
2018,04,27,16,35,16.30
2018,04,27,16,36,16.30
2018,04,27,16,37,16.30
2018,04,27,16,38,16.30
2018,04,27,16,39,16.30
2018,04,27,16,40,16.20
2018,04,27,16,41,16.20
2018,04,27,16,42,16.20
2018,04,27,16,43,16.20
2018,04,27,16,44,16.20
2018,04,27,16,45,16.20
2018,04,27,16,46,16.10
2018,04,27,16,47,16.00
2018,04,27,16,48,16.00
2018,04,27,16,49,16.00
2018,04,27,16,50,15.90
2018,04,27,16,51,15.90
2018,04,27,16,52,15.90
2018,04,27,16,53,15.90
2018,04,27,16,54,15.90
2018,04,27,16,55,15.80
2018,04,27,16,56,15.80
2018,04,27,16,57,15.80
2018,04,27,16,58,15.80
2018,04,27,16,59,15.80
2018,04,27,17,00,15.80
2018,04,27,17,01,15.80
2018,04,27,17,02,15.80
2018,04,27,17,03,15.80
2018,04,27,17,04,15.80
2018,04,27,17,05,15.80
2018,04,27,17,06,15.70
2018,04,27,17,07,15.70
2018,04,27,17,08,15.70
2018,04,27,17,09,15.70
2018,04,27,17,10,15.70
2018,04,27,17,11,15.60
2018,04,27,17,12,15.60
2018,04,27,17,13,15.60
2018,04,27,17,14,15.60
2018,04,27,17,15,15.60
2018,04,27,17,16,15.60
2018,04,27,17,17,15.50
2018,04,27,17,18,15.50
2018,04,27,17,19,15.40